星链-31306 (STARLINK-31306 )

导读 | 星芒AI

STARLINK-31306 是 SpaceX Starlink 卫星互联网项目中的一颗低轨卫星,属于第 12 批次部署的星链卫星之一。该卫星于 2023 年发射,运行在约 550 公里的轨道高度,旨在为全球用户提供高速、低延迟的互联网服务。作为星链星座的一部分,STARLINK-31306 与其他卫星协同工作,提升网络覆盖范围和连接稳定性,尤其在偏远和网络基础设施薄弱的地区发挥重要作用。

基本信息
目录编号:
58876
目录名称:
STARLINK-31306
国际标识:
2024-020A
轨道中心:
EARTH
卫星名称:
星链-31306
卫星全名:
星链-31306 (STARLINK-31306 )
卫星状态:
在轨 (已飞行690 天)
发射日期:
2024-01-29 UTC
国别 :
美国 (US)
星等 :
--
轨道信息
数据来源 国际轨道数据
星历时间: 2025-12-19T13:11:26+0800
17小时前
查看轨道信息
半长轴: 6853.377km
偏心率: 0.0001503
轨道倾角: 53.163°
近地点辐角 98.129°
升交点赤经 335.973°
平近点角 261.988°
近地点: 474.209km
远地点: 476.271km
周期: 94.106分钟
每日圈数: 15.301918
详细信息
固有亮度:
5
最大亮度:
0.3
卫星平台:
Starlink v2.0 mini
覆盖范围:
全球
运营商:
太空探索技术公司
运营商所在国:
美国
制造商(研发单位):
太空探索技术公司
制造商所在国:
美国
使用方式:
暂无
卫星简介
星链(Starlink)计划是由太空探索技术公司(SpaceX)提出的一个巨型低轨卫星互联网星座项目,计划在2019年至2024年间在太空搭建由约1.2万颗卫星组成的“星链”网络,其中1584颗将部署在地球上空550千米处的近地轨道,并从2020年开始工作。该卫星仍在工作。
2D轨道图
3D轨道图
轨道高度分析图
轨道倾角分析图
轨道综合分析图
查看轨道综合分析图